#datetime,building,power
2023-12-15T00:00:00,axn,35.20
2023-12-15T00:01:00,axn,35.27
2023-12-15T00:02:00,axn,36.30
2023-12-15T00:03:00,axn,35.71
2023-12-15T00:04:00,axn,36.89
2023-12-15T00:05:00,axn,35.93
2023-12-15T00:06:00,axn,37.14
2023-12-15T00:07:00,axn,35.67
2023-12-15T00:08:00,axn,35.84
2023-12-15T00:09:00,axn,34.37
2023-12-15T00:10:00,axn,33.80
2023-12-15T00:11:00,axn,34.07
2023-12-15T00:12:00,axn,34.52
2023-12-15T00:13:00,axn,34.10
2023-12-15T00:14:00,axn,33.85
2023-12-15T00:15:00,axn,34.48
2023-12-15T00:16:00,axn,34.98
2023-12-15T00:17:00,axn,34.68
2023-12-15T00:18:00,axn,33.95
2023-12-15T00:19:00,axn,34.12
2023-12-15T00:20:00,axn,34.87
2023-12-15T00:21:00,axn,35.45
2023-12-15T00:22:00,axn,34.98
2023-12-15T00:23:00,axn,35.25
2023-12-15T00:24:00,axn,34.38
2023-12-15T00:25:00,axn,34.12
2023-12-15T00:26:00,axn,33.61
2023-12-15T00:27:00,axn,34.03
2023-12-15T00:28:00,axn,33.83
2023-12-15T00:29:00,axn,34.45
2023-12-15T00:30:00,axn,33.85
2023-12-15T00:31:00,axn,34.28
2023-12-15T00:32:00,axn,33.63
2023-12-15T00:33:00,axn,33.48
2023-12-15T00:34:00,axn,33.58
2023-12-15T00:35:00,axn,34.97
2023-12-15T00:36:00,axn,34.33
2023-12-15T00:37:00,axn,35.12
2023-12-15T00:38:00,axn,33.90
2023-12-15T00:39:00,axn,33.76
2023-12-15T00:40:00,axn,36.12
2023-12-15T00:41:00,axn,36.15
2023-12-15T00:42:00,axn,36.02
2023-12-15T00:43:00,axn,35.83
2023-12-15T00:44:00,axn,35.97
2023-12-15T00:45:00,axn,34.43
2023-12-15T00:46:00,axn,34.37
2023-12-15T00:47:00,axn,34.56
2023-12-15T00:48:00,axn,36.32
2023-12-15T00:49:00,axn,36.18
2023-12-15T00:50:00,axn,37.34
2023-12-15T00:51:00,axn,35.45
2023-12-15T00:52:00,axn,36.65
2023-12-15T00:53:00,axn,35.78
2023-12-15T00:54:00,axn,37.04
2023-12-15T00:55:00,axn,36.02
2023-12-15T00:56:00,axn,37.28
2023-12-15T00:57:00,axn,37.30
2023-12-15T00:58:00,axn,37.03
2023-12-15T00:59:00,axn,37.24
2023-12-15T01:00:00,axn,36.89
2023-12-15T01:01:00,axn,37.23
2023-12-15T01:02:00,axn,40.90
2023-12-15T01:03:00,axn,41.61
2023-12-15T01:04:00,axn,38.28
2023-12-15T01:05:00,axn,37.95
2023-12-15T01:06:00,axn,36.70
2023-12-15T01:07:00,axn,35.54
2023-12-15T01:08:00,axn,35.69
2023-12-15T01:09:00,axn,35.62
2023-12-15T01:10:00,axn,35.69
2023-12-15T01:11:00,axn,34.94
2023-12-15T01:12:00,axn,35.04
2023-12-15T01:13:00,axn,35.15
2023-12-15T01:14:00,axn,36.06
2023-12-15T01:15:00,axn,41.91
2023-12-15T01:16:00,axn,32.82
2023-12-15T01:17:00,axn,29.70
2023-12-15T01:18:00,axn,29.60
2023-12-15T01:19:00,axn,29.68
2023-12-15T01:20:00,axn,29.81
2023-12-15T01:21:00,axn,29.76
2023-12-15T01:22:00,axn,29.73
2023-12-15T01:23:00,axn,29.64
2023-12-15T01:24:00,axn,29.59
2023-12-15T01:25:00,axn,29.63
2023-12-15T01:26:00,axn,29.34
2023-12-15T01:27:00,axn,29.32
2023-12-15T01:28:00,axn,29.31
2023-12-15T01:29:00,axn,28.64
2023-12-15T01:30:00,axn,28.89
2023-12-15T01:31:00,axn,28.38
2023-12-15T01:32:00,axn,28.39
2023-12-15T01:33:00,axn,28.51
2023-12-15T01:34:00,axn,28.39
2023-12-15T01:35:00,axn,28.40
2023-12-15T01:36:00,axn,28.35
2023-12-15T01:37:00,axn,28.15
2023-12-15T01:38:00,axn,28.17
2023-12-15T01:39:00,axn,27.95
2023-12-15T01:40:00,axn,28.16
2023-12-15T01:41:00,axn,28.06
2023-12-15T01:42:00,axn,28.07
2023-12-15T01:43:00,axn,28.48
2023-12-15T01:44:00,axn,28.39
2023-12-15T01:45:00,axn,28.60
2023-12-15T01:46:00,axn,28.06
2023-12-15T01:47:00,axn,28.11
2023-12-15T01:48:00,axn,28.05
2023-12-15T01:49:00,axn,28.13
2023-12-15T01:50:00,axn,28.43
2023-12-15T01:51:00,axn,28.22
2023-12-15T01:52:00,axn,28.50
2023-12-15T01:53:00,axn,28.25
2023-12-15T01:54:00,axn,28.14
2023-12-15T01:55:00,axn,28.05
2023-12-15T01:56:00,axn,28.46
2023-12-15T01:57:00,axn,28.21
2023-12-15T01:58:00,axn,28.34
2023-12-15T01:59:00,axn,28.50
2023-12-15T02:00:00,axn,28.16
2023-12-15T02:01:00,axn,28.44
2023-12-15T02:02:00,axn,28.27
2023-12-15T02:03:00,axn,29.11
2023-12-15T02:04:00,axn,29.18
2023-12-15T02:05:00,axn,28.43
2023-12-15T02:06:00,axn,28.91
2023-12-15T02:07:00,axn,28.25
2023-12-15T02:08:00,axn,28.09
2023-12-15T02:09:00,axn,38.66
2023-12-15T02:10:00,axn,38.62
2023-12-15T02:11:00,axn,38.30
2023-12-15T02:12:00,axn,38.24
2023-12-15T02:13:00,axn,38.32
2023-12-15T02:14:00,axn,28.05
2023-12-15T02:15:00,axn,27.90
2023-12-15T02:16:00,axn,27.79
2023-12-15T02:17:00,axn,28.34
2023-12-15T02:18:00,axn,27.95
2023-12-15T02:19:00,axn,28.05
2023-12-15T02:20:00,axn,27.94
2023-12-15T02:21:00,axn,28.40
2023-12-15T02:22:00,axn,28.46
2023-12-15T02:23:00,axn,28.14
2023-12-15T02:24:00,axn,28.30
2023-12-15T02:25:00,axn,28.85
2023-12-15T02:26:00,axn,28.27
2023-12-15T02:27:00,axn,28.72
2023-12-15T02:28:00,axn,28.36
2023-12-15T02:29:00,axn,28.36
2023-12-15T02:30:00,axn,28.14
2023-12-15T02:31:00,axn,27.98
2023-12-15T02:32:00,axn,27.87
2023-12-15T02:33:00,axn,27.95
2023-12-15T02:34:00,axn,27.90
2023-12-15T02:35:00,axn,28.23
2023-12-15T02:36:00,axn,27.87
2023-12-15T02:37:00,axn,28.10
2023-12-15T02:38:00,axn,27.50
2023-12-15T02:39:00,axn,27.66
2023-12-15T02:40:00,axn,27.60
2023-12-15T02:41:00,axn,27.94
2023-12-15T02:42:00,axn,27.81
2023-12-15T02:43:00,axn,27.89
2023-12-15T02:44:00,axn,27.54
2023-12-15T02:45:00,axn,27.65
2023-12-15T02:46:00,axn,27.47
2023-12-15T02:47:00,axn,27.97
2023-12-15T02:48:00,axn,27.70
2023-12-15T02:49:00,axn,28.12
2023-12-15T02:50:00,axn,27.59
2023-12-15T02:51:00,axn,27.70
2023-12-15T02:52:00,axn,27.62
2023-12-15T02:53:00,axn,28.10
2023-12-15T02:54:00,axn,28.23
2023-12-15T02:55:00,axn,28.28
2023-12-15T02:56:00,axn,27.86
2023-12-15T02:57:00,axn,27.68
2023-12-15T02:58:00,axn,27.61
2023-12-15T02:59:00,axn,27.75
2023-12-15T03:00:00,axn,28.07
2023-12-15T03:01:00,axn,27.98
2023-12-15T03:02:00,axn,29.27
2023-12-15T03:03:00,axn,28.30
2023-12-15T03:04:00,axn,27.62
2023-12-15T03:05:00,axn,27.88
2023-12-15T03:06:00,axn,28.17
2023-12-15T03:07:00,axn,27.66
2023-12-15T03:08:00,axn,27.74
2023-12-15T03:09:00,axn,28.06
2023-12-15T03:10:00,axn,27.72
2023-12-15T03:11:00,axn,27.81
2023-12-15T03:12:00,axn,27.83
2023-12-15T03:13:00,axn,27.97
2023-12-15T03:14:00,axn,27.88
2023-12-15T03:15:00,axn,27.82
2023-12-15T03:16:00,axn,28.09
2023-12-15T03:17:00,axn,27.61
2023-12-15T03:18:00,axn,27.52
2023-12-15T03:19:00,axn,27.39
2023-12-15T03:20:00,axn,27.91
2023-12-15T03:21:00,axn,27.58
2023-12-15T03:22:00,axn,27.76
2023-12-15T03:23:00,axn,27.75
2023-12-15T03:24:00,axn,27.96
2023-12-15T03:25:00,axn,27.81
2023-12-15T03:26:00,axn,27.63
2023-12-15T03:27:00,axn,27.92
2023-12-15T03:28:00,axn,27.58
2023-12-15T03:29:00,axn,27.63
2023-12-15T03:30:00,axn,27.80
2023-12-15T03:31:00,axn,28.01
2023-12-15T03:32:00,axn,30.95
2023-12-15T03:33:00,axn,28.07
2023-12-15T03:34:00,axn,28.03
2023-12-15T03:35:00,axn,28.00
2023-12-15T03:36:00,axn,28.03
2023-12-15T03:37:00,axn,27.93
2023-12-15T03:38:00,axn,28.02
2023-12-15T03:39:00,axn,28.05
2023-12-15T03:40:00,axn,28.19
2023-12-15T03:41:00,axn,28.65
2023-12-15T03:42:00,axn,28.13
2023-12-15T03:43:00,axn,28.40
2023-12-15T03:44:00,axn,28.80
2023-12-15T03:45:00,axn,32.88
2023-12-15T03:46:00,axn,32.72
2023-12-15T03:47:00,axn,32.60
2023-12-15T03:48:00,axn,28.32
2023-12-15T03:49:00,axn,27.90
2023-12-15T03:50:00,axn,28.18
2023-12-15T03:51:00,axn,28.75
2023-12-15T03:52:00,axn,28.16
2023-12-15T03:53:00,axn,28.04
2023-12-15T03:54:00,axn,28.54
2023-12-15T03:55:00,axn,27.90
2023-12-15T03:56:00,axn,27.97
2023-12-15T03:57:00,axn,27.86
2023-12-15T03:58:00,axn,27.85
2023-12-15T03:59:00,axn,28.09
2023-12-15T04:00:00,axn,27.91
2023-12-15T04:01:00,axn,27.81
2023-12-15T04:02:00,axn,42.73
2023-12-15T04:03:00,axn,42.25
2023-12-15T04:04:00,axn,42.22
2023-12-15T04:05:00,axn,42.26
2023-12-15T04:06:00,axn,40.93
2023-12-15T04:07:00,axn,40.73
2023-12-15T04:08:00,axn,26.66
2023-12-15T04:09:00,axn,26.44
2023-12-15T04:10:00,axn,30.00
2023-12-15T04:11:00,axn,30.09
2023-12-15T04:12:00,axn,30.30
2023-12-15T04:13:00,axn,28.25
2023-12-15T04:14:00,axn,27.18
2023-12-15T04:15:00,axn,27.33
2023-12-15T04:16:00,axn,26.98
2023-12-15T04:17:00,axn,27.19
2023-12-15T04:18:00,axn,27.22
2023-12-15T04:19:00,axn,26.71
2023-12-15T04:20:00,axn,27.36
2023-12-15T04:21:00,axn,26.75
2023-12-15T04:22:00,axn,26.83
2023-12-15T04:23:00,axn,26.71
2023-12-15T04:24:00,axn,27.25
2023-12-15T04:25:00,axn,27.54
2023-12-15T04:26:00,axn,43.05
2023-12-15T04:27:00,axn,26.51
2023-12-15T04:28:00,axn,26.76
2023-12-15T04:29:00,axn,26.51
2023-12-15T04:30:00,axn,26.52
2023-12-15T04:31:00,axn,26.95
2023-12-15T04:32:00,axn,26.73
2023-12-15T04:33:00,axn,26.59
2023-12-15T04:34:00,axn,26.50
2023-12-15T04:35:00,axn,26.45
2023-12-15T04:36:00,axn,26.42
2023-12-15T04:37:00,axn,26.32
2023-12-15T04:38:00,axn,26.83
2023-12-15T04:39:00,axn,26.38
2023-12-15T04:40:00,axn,26.35
2023-12-15T04:41:00,axn,26.26
2023-12-15T04:42:00,axn,26.25
2023-12-15T04:43:00,axn,26.20
2023-12-15T04:44:00,axn,26.13
2023-12-15T04:45:00,axn,26.15
2023-12-15T04:46:00,axn,26.17
2023-12-15T04:47:00,axn,26.18
2023-12-15T04:48:00,axn,26.10
2023-12-15T04:49:00,axn,26.16
2023-12-15T04:50:00,axn,25.98
2023-12-15T04:51:00,axn,25.88
2023-12-15T04:52:00,axn,25.87
2023-12-15T04:53:00,axn,26.35
2023-12-15T04:54:00,axn,25.95
2023-12-15T04:55:00,axn,26.45
2023-12-15T04:56:00,axn,26.10
2023-12-15T04:57:00,axn,25.61
2023-12-15T04:58:00,axn,25.86
2023-12-15T04:59:00,axn,25.85
2023-12-15T05:00:00,axn,25.67
2023-12-15T05:01:00,axn,27.86
2023-12-15T05:02:00,axn,30.15
2023-12-15T05:03:00,axn,35.74
2023-12-15T05:04:00,axn,33.08
2023-12-15T05:05:00,axn,38.06
2023-12-15T05:06:00,axn,37.67
2023-12-15T05:07:00,axn,36.20
2023-12-15T05:08:00,axn,35.65
2023-12-15T05:09:00,axn,30.75
2023-12-15T05:10:00,axn,29.92
2023-12-15T05:11:00,axn,29.00
2023-12-15T05:12:00,axn,28.74
2023-12-15T05:13:00,axn,29.71
2023-12-15T05:14:00,axn,30.07
2023-12-15T05:15:00,axn,29.86
2023-12-15T05:16:00,axn,29.54
2023-12-15T05:17:00,axn,29.77
2023-12-15T05:18:00,axn,29.76
2023-12-15T05:19:00,axn,29.69
2023-12-15T05:20:00,axn,29.06
2023-12-15T05:21:00,axn,28.82
2023-12-15T05:22:00,axn,28.63
2023-12-15T05:23:00,axn,29.10
2023-12-15T05:24:00,axn,28.81
2023-12-15T05:25:00,axn,29.38
2023-12-15T05:26:00,axn,30.26
2023-12-15T05:27:00,axn,29.85
2023-12-15T05:28:00,axn,30.69
2023-12-15T05:29:00,axn,30.98
2023-12-15T05:30:00,axn,30.70
2023-12-15T05:31:00,axn,31.91
2023-12-15T05:32:00,axn,32.38
2023-12-15T05:33:00,axn,32.23
2023-12-15T05:34:00,axn,32.27
2023-12-15T05:35:00,axn,46.84
2023-12-15T05:36:00,axn,32.03
2023-12-15T05:37:00,axn,32.45
2023-12-15T05:38:00,axn,32.42
2023-12-15T05:39:00,axn,32.77
2023-12-15T05:40:00,axn,33.02
2023-12-15T05:41:00,axn,33.23
2023-12-15T05:42:00,axn,33.61
2023-12-15T05:43:00,axn,33.67
2023-12-15T05:44:00,axn,33.93
2023-12-15T05:45:00,axn,33.87
2023-12-15T05:46:00,axn,33.99
2023-12-15T05:47:00,axn,33.65
2023-12-15T05:48:00,axn,33.52
2023-12-15T05:49:00,axn,34.51
2023-12-15T05:50:00,axn,34.02
2023-12-15T05:51:00,axn,34.06
2023-12-15T05:52:00,axn,34.35
2023-12-15T05:53:00,axn,34.34
2023-12-15T05:54:00,axn,35.34
2023-12-15T05:55:00,axn,34.35
2023-12-15T05:56:00,axn,34.46
2023-12-15T05:57:00,axn,34.50
2023-12-15T05:58:00,axn,34.72
2023-12-15T05:59:00,axn,34.06
2023-12-15T06:00:00,axn,33.76
2023-12-15T06:01:00,axn,34.94
2023-12-15T06:02:00,axn,34.80
2023-12-15T06:03:00,axn,34.59
2023-12-15T06:04:00,axn,34.80
2023-12-15T06:05:00,axn,34.93
2023-12-15T06:06:00,axn,35.22
2023-12-15T06:07:00,axn,35.45
2023-12-15T06:08:00,axn,35.03
2023-12-15T06:09:00,axn,34.82
2023-12-15T06:10:00,axn,34.90
2023-12-15T06:11:00,axn,34.59
2023-12-15T06:12:00,axn,34.74
2023-12-15T06:13:00,axn,35.10
2023-12-15T06:14:00,axn,35.50
2023-12-15T06:15:00,axn,35.25
2023-12-15T06:16:00,axn,35.71
2023-12-15T06:17:00,axn,35.23
2023-12-15T06:18:00,axn,35.48
2023-12-15T06:19:00,axn,37.00
2023-12-15T06:20:00,axn,35.12
2023-12-15T06:21:00,axn,38.02
2023-12-15T06:22:00,axn,37.97
2023-12-15T06:23:00,axn,34.89
2023-12-15T06:24:00,axn,35.25
2023-12-15T06:25:00,axn,35.24
2023-12-15T06:26:00,axn,35.44
2023-12-15T06:27:00,axn,35.26
2023-12-15T06:28:00,axn,35.20
2023-12-15T06:29:00,axn,45.48
2023-12-15T06:30:00,axn,45.44
2023-12-15T06:31:00,axn,45.15
2023-12-15T06:32:00,axn,45.20
2023-12-15T06:33:00,axn,45.12
2023-12-15T06:34:00,axn,34.94
2023-12-15T06:35:00,axn,47.48
2023-12-15T06:36:00,axn,35.13
2023-12-15T06:37:00,axn,35.50
2023-12-15T06:38:00,axn,35.52
2023-12-15T06:39:00,axn,35.66
2023-12-15T06:40:00,axn,36.29
2023-12-15T06:41:00,axn,36.62
2023-12-15T06:42:00,axn,35.85
2023-12-15T06:43:00,axn,36.62
2023-12-15T06:44:00,axn,36.60
2023-12-15T06:45:00,axn,36.25
2023-12-15T06:46:00,axn,36.17
2023-12-15T06:47:00,axn,35.96
2023-12-15T06:48:00,axn,35.79
2023-12-15T06:49:00,axn,35.91
2023-12-15T06:50:00,axn,35.97
2023-12-15T06:51:00,axn,36.31
2023-12-15T06:52:00,axn,36.45
2023-12-15T06:53:00,axn,36.34
2023-12-15T06:54:00,axn,35.06
2023-12-15T06:55:00,axn,34.43
2023-12-15T06:56:00,axn,34.36
2023-12-15T06:57:00,axn,34.02
2023-12-15T06:58:00,axn,34.00
2023-12-15T06:59:00,axn,34.39
2023-12-15T07:00:00,axn,34.43
2023-12-15T07:01:00,axn,33.97
2023-12-15T07:02:00,axn,36.50
2023-12-15T07:03:00,axn,36.20
2023-12-15T07:04:00,axn,35.10
2023-12-15T07:05:00,axn,35.50
2023-12-15T07:06:00,axn,35.26
2023-12-15T07:07:00,axn,37.94
2023-12-15T07:08:00,axn,35.06
2023-12-15T07:09:00,axn,34.99
2023-12-15T07:10:00,axn,35.28
2023-12-15T07:11:00,axn,35.52
2023-12-15T07:12:00,axn,35.79
2023-12-15T07:13:00,axn,38.84
2023-12-15T07:14:00,axn,38.83
2023-12-15T07:15:00,axn,37.63
2023-12-15T07:16:00,axn,39.02
2023-12-15T07:17:00,axn,37.77
2023-12-15T07:18:00,axn,39.54
2023-12-15T07:19:00,axn,38.56
2023-12-15T07:20:00,axn,37.86
2023-12-15T07:21:00,axn,38.05
2023-12-15T07:22:00,axn,38.24
2023-12-15T07:23:00,axn,38.08
2023-12-15T07:24:00,axn,38.38
2023-12-15T07:25:00,axn,37.90
2023-12-15T07:26:00,axn,40.28
2023-12-15T07:27:00,axn,38.66
2023-12-15T07:28:00,axn,37.95
2023-12-15T07:29:00,axn,40.24
2023-12-15T07:30:00,axn,40.14
2023-12-15T07:31:00,axn,41.13
2023-12-15T07:32:00,axn,39.43
2023-12-15T07:33:00,axn,39.34
2023-12-15T07:34:00,axn,37.71
2023-12-15T07:35:00,axn,37.75
2023-12-15T07:36:00,axn,40.68
2023-12-15T07:37:00,axn,40.42
2023-12-15T07:38:00,axn,38.10
2023-12-15T07:39:00,axn,37.87
2023-12-15T07:40:00,axn,38.24
2023-12-15T07:41:00,axn,38.88
2023-12-15T07:42:00,axn,40.42
2023-12-15T07:43:00,axn,61.65
2023-12-15T07:44:00,axn,52.67
2023-12-15T07:45:00,axn,52.95
2023-12-15T07:46:00,axn,38.00
2023-12-15T07:47:00,axn,53.00
2023-12-15T07:48:00,axn,52.47
2023-12-15T07:49:00,axn,52.18
2023-12-15T07:50:00,axn,52.39
2023-12-15T07:51:00,axn,38.66
2023-12-15T07:52:00,axn,38.38
2023-12-15T07:53:00,axn,38.11
2023-12-15T07:54:00,axn,38.56
2023-12-15T07:55:00,axn,38.33
2023-12-15T07:56:00,axn,38.33
2023-12-15T07:57:00,axn,38.18
2023-12-15T07:58:00,axn,39.57
2023-12-15T07:59:00,axn,39.46
2023-12-15T08:00:00,axn,38.44
2023-12-15T08:01:00,axn,62.99
2023-12-15T08:02:00,axn,44.37
2023-12-15T08:03:00,axn,45.80
2023-12-15T08:04:00,axn,47.58
2023-12-15T08:05:00,axn,45.63
2023-12-15T08:06:00,axn,45.45
2023-12-15T08:07:00,axn,45.18
2023-12-15T08:08:00,axn,45.13
2023-12-15T08:09:00,axn,47.11
2023-12-15T08:10:00,axn,46.09
2023-12-15T08:11:00,axn,45.53
2023-12-15T08:12:00,axn,45.52
2023-12-15T08:13:00,axn,48.37
2023-12-15T08:14:00,axn,46.14
2023-12-15T08:15:00,axn,45.15
2023-12-15T08:16:00,axn,47.41
2023-12-15T08:17:00,axn,47.97
2023-12-15T08:18:00,axn,45.48
2023-12-15T08:19:00,axn,45.67
2023-12-15T08:20:00,axn,45.54
2023-12-15T08:21:00,axn,45.71
2023-12-15T08:22:00,axn,46.15
2023-12-15T08:23:00,axn,46.03
2023-12-15T08:24:00,axn,45.97
2023-12-15T08:25:00,axn,46.32
2023-12-15T08:26:00,axn,45.15
2023-12-15T08:27:00,axn,45.40
2023-12-15T08:28:00,axn,45.22
2023-12-15T08:29:00,axn,46.60
2023-12-15T08:30:00,axn,45.27
2023-12-15T08:31:00,axn,46.83
2023-12-15T08:32:00,axn,45.35
2023-12-15T08:33:00,axn,46.31
2023-12-15T08:34:00,axn,45.06
2023-12-15T08:35:00,axn,45.84
2023-12-15T08:36:00,axn,46.61
2023-12-15T08:37:00,axn,45.43
2023-12-15T08:38:00,axn,45.43
2023-12-15T08:39:00,axn,45.29
2023-12-15T08:40:00,axn,45.36
2023-12-15T08:41:00,axn,47.12
2023-12-15T08:42:00,axn,45.80
2023-12-15T08:43:00,axn,47.43
2023-12-15T08:44:00,axn,46.70
2023-12-15T08:45:00,axn,43.77
2023-12-15T08:46:00,axn,44.54
2023-12-15T08:47:00,axn,45.59
2023-12-15T08:48:00,axn,43.87
2023-12-15T08:49:00,axn,44.82
2023-12-15T08:50:00,axn,45.49
2023-12-15T08:51:00,axn,44.90
2023-12-15T08:52:00,axn,45.10
2023-12-15T08:53:00,axn,47.02
2023-12-15T08:54:00,axn,44.51
2023-12-15T08:55:00,axn,45.23
2023-12-15T08:56:00,axn,47.47
2023-12-15T08:57:00,axn,44.49
2023-12-15T08:58:00,axn,44.54
2023-12-15T08:59:00,axn,44.34
2023-12-15T09:00:00,axn,44.74
2023-12-15T09:01:00,axn,47.73
2023-12-15T09:02:00,axn,47.46
2023-12-15T09:03:00,axn,44.59
2023-12-15T09:04:00,axn,44.47
2023-12-15T09:05:00,axn,47.26
2023-12-15T09:06:00,axn,44.16
2023-12-15T09:07:00,axn,45.76
2023-12-15T09:08:00,axn,45.91
2023-12-15T09:09:00,axn,44.53
2023-12-15T09:10:00,axn,47.23
2023-12-15T09:11:00,axn,45.17
2023-12-15T09:12:00,axn,45.86
2023-12-15T09:13:00,axn,43.44
2023-12-15T09:14:00,axn,46.24
2023-12-15T09:15:00,axn,44.55
2023-12-15T09:16:00,axn,44.12
2023-12-15T09:17:00,axn,54.56
2023-12-15T09:18:00,axn,51.75
2023-12-15T09:19:00,axn,51.94
2023-12-15T09:20:00,axn,52.86
2023-12-15T09:21:00,axn,54.05
2023-12-15T09:22:00,axn,54.80
2023-12-15T09:23:00,axn,53.86
2023-12-15T09:24:00,axn,51.61
2023-12-15T09:25:00,axn,53.61
2023-12-15T09:26:00,axn,51.62
2023-12-15T09:27:00,axn,51.53
2023-12-15T09:28:00,axn,51.73
2023-12-15T09:29:00,axn,53.93
2023-12-15T09:30:00,axn,51.98
2023-12-15T09:31:00,axn,54.55
2023-12-15T09:32:00,axn,53.44
2023-12-15T09:33:00,axn,52.04
2023-12-15T09:34:00,axn,51.91
2023-12-15T09:35:00,axn,52.27
2023-12-15T09:36:00,axn,51.67
2023-12-15T09:37:00,axn,52.09
2023-12-15T09:38:00,axn,52.70
2023-12-15T09:39:00,axn,53.26
2023-12-15T09:40:00,axn,53.30
2023-12-15T09:41:00,axn,53.35
2023-12-15T09:42:00,axn,53.12
2023-12-15T09:43:00,axn,53.60
2023-12-15T09:44:00,axn,52.51
2023-12-15T09:45:00,axn,53.34
2023-12-15T09:46:00,axn,52.73
2023-12-15T09:47:00,axn,53.32
2023-12-15T09:48:00,axn,52.89
2023-12-15T09:49:00,axn,52.92
2023-12-15T09:50:00,axn,52.98
2023-12-15T09:51:00,axn,52.94
2023-12-15T09:52:00,axn,53.02
2023-12-15T09:53:00,axn,53.47
2023-12-15T09:54:00,axn,53.31
2023-12-15T09:55:00,axn,53.09
2023-12-15T09:56:00,axn,63.75
2023-12-15T09:57:00,axn,64.04
2023-12-15T09:58:00,axn,63.67
2023-12-15T09:59:00,axn,63.44
2023-12-15T10:00:00,axn,53.43
2023-12-15T10:01:00,axn,54.02
2023-12-15T10:02:00,axn,54.46
2023-12-15T10:03:00,axn,53.59
2023-12-15T10:04:00,axn,54.45
2023-12-15T10:05:00,axn,53.62
2023-12-15T10:06:00,axn,53.49
2023-12-15T10:07:00,axn,53.72
2023-12-15T10:08:00,axn,53.04
2023-12-15T10:09:00,axn,53.37
2023-12-15T10:10:00,axn,53.21
2023-12-15T10:11:00,axn,53.57
2023-12-15T10:12:00,axn,53.64
2023-12-15T10:13:00,axn,53.53
2023-12-15T10:14:00,axn,53.97
2023-12-15T10:15:00,axn,55.21
2023-12-15T10:16:00,axn,53.82
2023-12-15T10:17:00,axn,54.41
2023-12-15T10:18:00,axn,53.66
2023-12-15T10:19:00,axn,53.66
2023-12-15T10:20:00,axn,54.09
2023-12-15T10:21:00,axn,54.50
2023-12-15T10:22:00,axn,54.35
2023-12-15T10:23:00,axn,53.56
2023-12-15T10:24:00,axn,53.74
2023-12-15T10:25:00,axn,54.15
2023-12-15T10:26:00,axn,54.16
2023-12-15T10:27:00,axn,53.82
2023-12-15T10:28:00,axn,53.90
2023-12-15T10:29:00,axn,53.90
2023-12-15T10:30:00,axn,55.42
2023-12-15T10:31:00,axn,53.67
2023-12-15T10:32:00,axn,53.67
2023-12-15T10:33:00,axn,58.76
2023-12-15T10:34:00,axn,58.04
2023-12-15T10:35:00,axn,58.38
2023-12-15T10:36:00,axn,58.46
2023-12-15T10:37:00,axn,53.97
2023-12-15T10:38:00,axn,56.42
2023-12-15T10:39:00,axn,56.48
2023-12-15T10:40:00,axn,56.63
2023-12-15T10:41:00,axn,53.54
2023-12-15T10:42:00,axn,53.52
2023-12-15T10:43:00,axn,58.81
2023-12-15T10:44:00,axn,53.58
2023-12-15T10:45:00,axn,54.02
2023-12-15T10:46:00,axn,54.18
2023-12-15T10:47:00,axn,53.63
2023-12-15T10:48:00,axn,53.69
2023-12-15T10:49:00,axn,53.78
2023-12-15T10:50:00,axn,54.16
2023-12-15T10:51:00,axn,53.87
2023-12-15T10:52:00,axn,53.98
2023-12-15T10:53:00,axn,54.07
2023-12-15T10:54:00,axn,53.99
2023-12-15T10:55:00,axn,53.88
2023-12-15T10:56:00,axn,53.81
2023-12-15T10:57:00,axn,54.56
2023-12-15T10:58:00,axn,55.01
2023-12-15T10:59:00,axn,54.64
2023-12-15T11:00:00,axn,54.50
2023-12-15T11:01:00,axn,55.65
2023-12-15T11:02:00,axn,57.90
2023-12-15T11:03:00,axn,54.47
2023-12-15T11:04:00,axn,53.97
2023-12-15T11:05:00,axn,53.86
2023-12-15T11:06:00,axn,54.09
2023-12-15T11:07:00,axn,54.07
2023-12-15T11:08:00,axn,54.01
2023-12-15T11:09:00,axn,54.18
2023-12-15T11:10:00,axn,54.62
2023-12-15T11:11:00,axn,53.86
2023-12-15T11:12:00,axn,54.39
2023-12-15T11:13:00,axn,54.24
2023-12-15T11:14:00,axn,54.41
2023-12-15T11:15:00,axn,54.03
2023-12-15T11:16:00,axn,54.10
2023-12-15T11:17:00,axn,54.19
2023-12-15T11:18:00,axn,54.16
2023-12-15T11:19:00,axn,54.12
2023-12-15T11:20:00,axn,54.12
2023-12-15T11:21:00,axn,54.05
2023-12-15T11:22:00,axn,54.34
2023-12-15T11:23:00,axn,54.46
2023-12-15T11:24:00,axn,53.89
2023-12-15T11:25:00,axn,54.69
2023-12-15T11:26:00,axn,54.52
2023-12-15T11:27:00,axn,55.56
2023-12-15T11:28:00,axn,54.69
2023-12-15T11:29:00,axn,55.50
2023-12-15T11:30:00,axn,55.65
2023-12-15T11:31:00,axn,54.56
2023-12-15T11:32:00,axn,54.43
2023-12-15T11:33:00,axn,54.38
2023-12-15T11:34:00,axn,54.30
2023-12-15T11:35:00,axn,54.92
2023-12-15T11:36:00,axn,54.93
2023-12-15T11:37:00,axn,55.24
2023-12-15T11:38:00,axn,55.57
2023-12-15T11:39:00,axn,55.58
2023-12-15T11:40:00,axn,55.37
2023-12-15T11:41:00,axn,55.15
2023-12-15T11:42:00,axn,54.97
2023-12-15T11:43:00,axn,55.27
2023-12-15T11:44:00,axn,55.24
2023-12-15T11:45:00,axn,54.84
2023-12-15T11:46:00,axn,55.01
2023-12-15T11:47:00,axn,54.97
2023-12-15T11:48:00,axn,54.94
2023-12-15T11:49:00,axn,54.91
2023-12-15T11:50:00,axn,55.00
2023-12-15T11:51:00,axn,55.11
2023-12-15T11:52:00,axn,55.22
2023-12-15T11:53:00,axn,55.66
2023-12-15T11:54:00,axn,55.17
2023-12-15T11:55:00,axn,55.13
2023-12-15T11:56:00,axn,55.68
2023-12-15T11:57:00,axn,55.34
2023-12-15T11:58:00,axn,55.09
2023-12-15T11:59:00,axn,55.15
2023-12-15T12:00:00,axn,54.90
2023-12-15T12:01:00,axn,55.85
2023-12-15T12:02:00,axn,55.15
2023-12-15T12:03:00,axn,55.31
2023-12-15T12:04:00,axn,55.43
2023-12-15T12:05:00,axn,55.70
2023-12-15T12:06:00,axn,55.47
2023-12-15T12:07:00,axn,55.44
2023-12-15T12:08:00,axn,55.75
2023-12-15T12:09:00,axn,61.40
2023-12-15T12:10:00,axn,61.78
2023-12-15T12:11:00,axn,62.04
2023-12-15T12:12:00,axn,56.02
2023-12-15T12:13:00,axn,56.34
2023-12-15T12:14:00,axn,56.66
2023-12-15T12:15:00,axn,56.53
2023-12-15T12:16:00,axn,56.94
2023-12-15T12:17:00,axn,56.17
2023-12-15T12:18:00,axn,55.43
2023-12-15T12:19:00,axn,55.86
2023-12-15T12:20:00,axn,55.36
2023-12-15T12:21:00,axn,55.03
2023-12-15T12:22:00,axn,54.87
2023-12-15T12:23:00,axn,54.83
2023-12-15T12:24:00,axn,54.92
2023-12-15T12:25:00,axn,58.68
2023-12-15T12:26:00,axn,55.45
2023-12-15T12:27:00,axn,55.08
2023-12-15T12:28:00,axn,55.22
2023-12-15T12:29:00,axn,54.89
2023-12-15T12:30:00,axn,55.46
2023-12-15T12:31:00,axn,69.54
2023-12-15T12:32:00,axn,69.07
2023-12-15T12:33:00,axn,69.15
2023-12-15T12:34:00,axn,69.12
2023-12-15T12:35:00,axn,69.19
2023-12-15T12:36:00,axn,55.40
2023-12-15T12:37:00,axn,55.21
2023-12-15T12:38:00,axn,54.98
2023-12-15T12:39:00,axn,55.01
2023-12-15T12:40:00,axn,47.01
2023-12-15T12:41:00,axn,47.51
2023-12-15T12:42:00,axn,47.49
2023-12-15T12:43:00,axn,47.00
2023-12-15T12:44:00,axn,46.94
2023-12-15T12:45:00,axn,46.43
2023-12-15T12:46:00,axn,46.35
2023-12-15T12:47:00,axn,46.41
2023-12-15T12:48:00,axn,46.38
2023-12-15T12:49:00,axn,46.89
2023-12-15T12:50:00,axn,46.95
2023-12-15T12:51:00,axn,46.57
2023-12-15T12:52:00,axn,46.38
2023-12-15T12:53:00,axn,46.54
2023-12-15T12:54:00,axn,46.58
2023-12-15T12:55:00,axn,46.37
2023-12-15T12:56:00,axn,46.07
2023-12-15T12:57:00,axn,46.83
2023-12-15T12:58:00,axn,47.00
2023-12-15T12:59:00,axn,46.05
2023-12-15T13:00:00,axn,45.88
2023-12-15T13:01:00,axn,45.98
2023-12-15T13:02:00,axn,46.47
2023-12-15T13:03:00,axn,46.48
2023-12-15T13:04:00,axn,46.90
2023-12-15T13:05:00,axn,46.58
2023-12-15T13:06:00,axn,46.32
2023-12-15T13:07:00,axn,46.27
2023-12-15T13:08:00,axn,46.19
2023-12-15T13:09:00,axn,46.54
2023-12-15T13:10:00,axn,46.41
2023-12-15T13:11:00,axn,46.14
2023-12-15T13:12:00,axn,44.70
2023-12-15T13:13:00,axn,44.93
2023-12-15T13:14:00,axn,44.51
2023-12-15T13:15:00,axn,44.59
2023-12-15T13:16:00,axn,69.33
2023-12-15T13:17:00,axn,47.04
2023-12-15T13:18:00,axn,46.98